Date String (YYYY-MM-DD hh:mm:ss) UTC,Instrument flags,Ambient pressure (hPa),Sample flow (lpm),Bypass flow (lpm),Sample temperature (°C),Ambient temperature (°C),ASC tube jacket temperature (°C),LED temperature (°C),Box temperature (°C),Sample RH (%),Span deviation,Mass concentration (μg/m³),Mass concentration (μg/m³),Mass concentration (μg/m³)
DateTimeUTC,F1_M11,P_M11,Q1_M11,Q2_M11,T1_M11,T2_M11,T3_M11,T4_M11,T5_M11,U1_M11,ZSPAN_M11,X0_M11,X2_M11,X1_M11
2023-02-04 15:00:00,,0825.4,5.00,0.00,21.7,21.1,00.0,30.5,23.5,06.4,0000.0,0004.13,0000.90,0000.42
2023-02-04 15:01:00,,0825.4,4.99,0.00,21.7,20.7,00.0,30.5,23.4,06.1,0000.0,0003.97,0000.87,0000.42
2023-02-04 15:02:00,,0825.5,5.00,0.00,21.6,20.4,00.0,30.5,23.3,06.2,0000.0,0003.75,0000.84,0000.41
2023-02-04 15:03:00,,0825.5,5.00,0.00,21.6,20.1,00.0,30.5,23.2,06.3,0000.0,0003.86,0000.87,0000.41
2023-02-04 15:04:00,,0825.4,5.00,0.00,21.6,19.9,00.0,30.5,23.2,06.5,0000.0,0003.10,0000.84,0000.42
2023-02-04 15:05:00,,0825.4,5.03,0.00,21.5,19.7,00.0,30.5,23.1,06.3,0000.0,0002.74,0000.83,0000.43
2023-02-04 15:06:00,,0825.4,4.99,0.00,21.5,19.6,00.0,30.5,23.1,06.5,0000.0,0002.77,0000.84,0000.43
2023-02-04 15:07:00,,0825.3,4.99,0.00,21.4,19.5,00.0,30.5,23.1,06.7,0000.0,0002.60,0000.83,0000.42
2023-02-04 15:08:00,,0825.4,4.98,0.00,21.4,19.5,00.0,30.5,23.0,06.6,0000.0,0002.11,0000.83,0000.42
2023-02-04 15:09:00,,0825.3,4.99,0.00,21.4,19.4,00.0,30.4,23.0,06.7,0000.0,0001.75,0000.83,0000.43
2023-02-04 15:10:00,,0825.3,5.00,0.00,21.3,19.3,00.0,30.4,22.9,06.5,0000.0,0001.91,0000.88,0000.42
2023-02-04 15:11:00,,0825.3,5.01,0.00,21.3,19.3,00.0,30.4,22.9,06.5,0000.0,0001.87,0000.87,0000.43
2023-02-04 15:12:00,,0825.3,4.98,0.00,21.2,19.3,00.0,30.4,22.8,06.7,0000.0,0001.81,0000.86,0000.43
2023-02-04 15:13:00,,0825.3,5.02,0.00,21.2,19.5,00.0,30.3,22.8,06.9,0000.0,0001.76,0000.83,0000.44
2023-02-04 15:14:00,,0825.3,5.03,0.00,21.3,20.8,00.0,30.3,23.1,07.2,0000.0,0001.93,0000.80,0000.43
2023-02-04 15:15:00,,0825.3,5.00,0.00,21.5,22.0,00.0,30.3,23.4,07.8,0000.0,0002.03,0000.80,0000.43
2023-02-04 15:16:00,,0825.2,5.01,0.00,21.5,21.8,00.0,30.3,23.5,07.0,0000.0,0002.28,0000.87,0000.43
2023-02-04 15:17:00,,0825.3,4.98,0.00,21.6,21.3,00.0,30.4,23.4,06.7,0000.0,0002.29,0000.88,0000.43
2023-02-04 15:18:00,,0825.2,4.99,0.00,21.6,21.0,00.0,30.4,23.4,07.2,0000.0,0002.47,0000.92,0000.44
2023-02-04 15:19:00,,0825.2,4.97,0.00,21.6,20.8,00.0,30.4,23.3,06.8,0000.0,0002.62,0000.98,0000.44
2023-02-04 15:20:00,,0825.2,4.98,0.00,21.6,20.7,00.0,30.4,23.3,07.0,0000.0,0002.69,0001.02,0000.44
2023-02-04 15:21:00,,0825.2,5.04,0.00,21.6,20.6,00.0,30.4,23.3,07.2,0000.0,0002.53,0000.98,0000.45
2023-02-04 15:22:00,,0825.2,5.02,0.00,21.6,20.5,00.0,30.5,23.3,07.1,0000.0,0002.41,0000.95,0000.45
2023-02-04 15:23:00,,0825.3,5.00,0.00,21.6,20.4,00.0,30.5,23.3,06.7,0000.0,0002.42,0000.96,0000.46
2023-02-04 15:24:00,,0825.3,4.97,0.00,21.6,20.4,00.0,30.5,23.3,06.9,0000.0,0003.00,0000.98,0000.46
2023-02-04 15:25:00,,0825.3,5.03,0.00,21.6,20.3,00.0,30.5,23.2,06.8,0000.0,0003.59,0000.98,0000.46
2023-02-04 15:26:00,,0825.2,5.02,0.00,21.6,20.3,00.0,30.5,23.3,06.8,0000.0,0003.37,0000.95,0000.46
2023-02-04 15:27:00,,0825.2,5.03,0.00,21.6,20.2,00.0,30.5,23.3,06.7,0000.0,0003.17,0000.90,0000.46
2023-02-04 15:28:00,,0825.3,4.99,0.00,21.6,20.2,00.0,30.5,23.3,06.7,0000.0,0003.23,0000.90,0000.46
2023-02-04 15:29:00,,0825.2,4.97,0.00,21.6,20.2,00.0,30.5,23.2,07.1,0000.0,0003.35,0000.94,0000.47
2023-02-04 15:30:00,,0825.1,4.99,0.00,21.6,20.2,00.0,30.5,23.2,07.3,0000.0,0003.34,0000.92,0000.48
2023-02-04 15:31:00,,0825.2,5.01,0.00,21.5,20.1,00.0,30.5,23.2,07.2,0000.0,0003.34,0000.93,0000.50
2023-02-04 15:32:00,,0825.3,5.02,0.00,21.5,20.1,00.0,30.4,23.1,07.2,0000.0,0003.49,0000.98,0000.50
2023-02-04 15:33:00,,0825.3,5.00,0.00,21.5,20.1,00.0,30.4,23.2,07.3,0000.0,0003.56,0001.01,0000.49
2023-02-04 15:34:00,,0825.1,4.98,0.00,21.5,20.1,00.0,30.4,23.2,07.2,0000.0,0003.60,0001.01,0000.49
2023-02-04 15:35:00,,0825.2,4.98,0.00,21.5,20.1,00.0,30.4,23.1,07.4,0000.0,0003.28,0001.02,0000.50
2023-02-04 15:36:00,,0825.3,5.00,0.00,21.5,20.1,00.0,30.4,23.1,07.8,0000.0,0002.62,0001.07,0000.51
2023-02-04 15:37:00,,0825.3,4.98,0.00,21.5,20.3,00.0,30.4,23.2,07.5,0000.0,0002.94,0001.07,0000.51
2023-02-04 15:38:00,,0825.4,5.03,0.00,21.6,21.3,00.0,30.4,23.5,07.5,0000.0,0003.11,0001.09,0000.50
2023-02-04 15:39:00,,0825.4,5.01,0.00,21.7,22.6,00.0,30.4,23.8,07.3,0000.0,0003.59,0001.08,0000.50
2023-02-04 15:40:00,,0825.4,4.95,0.00,21.9,22.9,00.0,30.4,24.0,07.2,0000.0,0003.43,0001.05,0000.50
2023-02-04 15:41:00,,0825.1,4.98,0.00,21.9,22.4,00.0,30.5,23.9,06.9,0000.0,0003.21,0000.99,0000.48
2023-02-04 15:42:00,,0825.4,5.01,0.00,21.9,22.0,00.0,30.6,23.9,06.9,0000.0,0003.45,0000.99,0000.47
2023-02-04 15:43:00,,0825.2,5.03,0.00,21.9,21.6,00.0,30.6,23.8,07.0,0000.0,0004.40,0000.94,0000.46
2023-02-04 15:44:00,,0825.3,4.99,0.00,22.0,21.4,00.0,30.6,23.8,07.4,0000.0,0004.94,0001.00,0000.46
2023-02-04 15:45:00,,0825.4,4.99,0.00,22.0,21.2,00.0,30.7,23.8,07.5,0000.0,0005.29,0001.02,0000.46
2023-02-04 15:46:00,,0825.3,4.97,0.00,22.0,21.1,00.0,30.7,23.8,07.5,0000.0,0005.40,0001.03,0000.44
2023-02-04 15:47:00,,0825.3,4.98,0.00,22.0,21.0,00.0,30.7,23.7,07.6,0000.0,0005.16,0001.01,0000.44
2023-02-04 15:48:00,,0825.1,5.02,0.00,22.0,20.9,00.0,30.7,23.7,08.1,0000.0,0005.52,0001.02,0000.44
2023-02-04 15:49:00,,0824.9,4.98,0.00,22.0,20.8,00.0,30.7,23.7,08.2,0000.0,0005.56,0000.99,0000.44
2023-02-04 15:50:00,,0824.9,5.03,0.00,22.0,20.8,00.0,30.8,23.7,07.9,0000.0,0004.92,0000.97,0000.43
2023-02-04 15:51:00,,0825.0,4.99,0.00,22.0,20.8,00.0,30.8,23.6,07.9,0000.0,0004.78,0000.93,0000.44
2023-02-04 15:52:00,,0824.9,4.99,0.00,21.9,20.7,00.0,30.8,23.6,07.9,0000.0,0004.76,0000.93,0000.44
2023-02-04 15:53:00,,0824.8,4.99,0.00,21.9,20.6,00.0,30.8,23.6,07.8,0000.0,0004.65,0000.91,0000.45
2023-02-04 15:54:00,,0824.8,4.99,0.00,21.9,20.6,00.0,30.8,23.6,07.9,0000.0,0003.52,0000.91,0000.45
2023-02-04 15:55:00,,0824.8,5.00,0.00,21.9,20.5,00.0,30.8,23.6,08.2,0000.0,0003.31,0000.90,0000.46
2023-02-04 15:56:00,,0824.5,5.02,0.00,21.9,20.5,00.0,30.8,23.6,08.0,0000.0,0003.22,0000.92,0000.46
2023-02-04 15:57:00,,0824.8,4.99,0.00,21.9,20.5,00.0,30.8,23.6,08.0,0000.0,0003.22,0000.93,0000.46
2023-02-04 15:58:00,,0824.5,4.98,0.00,21.9,20.5,00.0,30.8,23.6,08.4,0000.0,0003.32,0000.90,0000.46
2023-02-04 15:59:00,,0824.4,5.02,0.00,21.9,20.5,00.0,30.8,23.5,08.4,0000.0,0002.87,0000.88,0000.46
